Regional Weather Roundup
Issued by NWS Newport/Morehead, NC

Current Version | Previous Version | Graphics & Text | Print | Product List | Glossary On
Versions: 1 2 3 4 5 6 7 8 9 10 11 12 13 14 15 16 17 18 19 20 21 22 23 24 25 26 27 28 29 30 31 32 33 34 35 36 37 38 39 40 41 42 43 44 45 46 47 48 49 50
000 ASUS42 KMHX 230513 RWRMHX WEATHER ROUNDUP FOR EASTERN NORTH CAROLINA NATIONAL WEATHER SERVICE NEWPORT/MOREHEAD CITY NC 1200 AM EST THU FEB 23 2017 NOTE: "FAIR" INDICATES FEW OR NO CLOUDS BELOW 12,000 FEET WITH NO SIGNIFICANT WEATHER AND/OR OBSTRUCTIONS TO VISIBILITY NCZ015>017-031-032-045>047-102-103-230600- NORTH COAST CITY SKY/WX TMP DP RH WIND PRES REMARKS EDENTON PTCLDY 56 52 87 CALM 29.95F ELIZABETH CITY CLOUDY 56 51 84 CALM 29.95F KITTY HAWK NOT AVBL MANTEO PTCLDY 58 52 81 CALM 29.95F $$ NCZ045>047-081-094-103-104-230600- CENTRAL COAST CITY SKY/WX TMP DP RH WIND PRES REMARKS FRISCO CLOUDY 61 54 77 NE3 29.96S $$ NCZ095-097-098-100-101-230600- SOUTHERN COAST CITY SKY/WX TMP DP RH WIND PRES REMARKS BEAUFORT PTCLDY 56 53 90 CALM 29.94F CEDAR ISLAND NOT AVBL JACKSONVILLE NOT AVBL PINEY ISLAND MOCLDY N/A N/A N/A NE5 29.95S WILMINGTON CLOUDY 55 53 93 NE5 29.92F $$ NCZ011>013-027>030-043-044-078>080-089-090>093-098-230600- COASTAL PLAIN CITY SKY/WX TMP DP RH WIND PRES REMARKS AHOSKIE N/A 53 52 95 S3 29.94S CLINTON PTCLDY 57 54 89 CALM 29.93S ELIZABETHTOWN PTCLDY 56 53 92 CALM 29.92F GOLDSBORO MOCLDY 60 56 86 CALM 29.91F GREENVILLE MOCLDY 57 52 82 S5 29.96S HAVELOCK NOT AVBL KENANSVILLE NOT AVBL KINSTON MOCLDY 56 52 89 CALM 29.94F NEW BERN CLOUDY 53 52 96 CALM 29.95F RICHLANDS PTCLDY 52 51 97 CALM 29.93F ROCKY MOUNT CLOUDY 54 53 97 CALM 29.94S WASHINGTON CLOUDY 57 52 82 CALM 29.95S WHITEVILLE CLOUDY 57 53 86 E3 29.91F $$ AMZ130-135-150-152-154-156-158-170-250-252-270-ANZ085-086-088-633-658-670-230600- MARINE OBSERVATIONS STATION/POSITION TIME TEMP WIND PRES WAVE SWELL AIR SEA DIR/SP/G HT/PER HT/PER (UTC) (F) (DEG/KT/KT) (MB) (FT/S) (FT/S) CHESAPEAKE LIGHT NOT AVBL 64 E VA BEACH 0450 58 53 160/ 6/ 8 1014.0 3/11 3/11 DUCK 0448 54 48 160/ 10/ 11 1013.4 2 E DUCK 0500 50 N/A 3/11 2/11 OREGON INLET 0442 56 54 130/ 2/ 3 1014.2 13E OREGON INLT NOT AVBL HATTERAS CG 0442 60 61 20/ 2/ 3 1014.0 DIAMOND BUOY 0450 69 74 160/ 12/ 17 1014.2 3/10 2/10 CAPE LOOKOUT 0500 64 150/ 9/ 9 1013.4 BEAUFORT LAB 0424 59 55 340/ 2/ 3 1013.2 30 SE NEW RVR IN 0408 68 150/ 10/ 14 1013.8 30 SE NEW RVR IN 0443 69 N/A 4/11 2/11 27 SE WRIGHTSVLE 0408 67 64 130/ 8/ 10 1012.4 5 SE WRIGHTSVLE 0408 60 58 70/ 4/ 8 1013.4 225 S CAPE HAT 0450 67 70 110/ 19/ 21 1013.6 6/ 9 3/ 9 41 SE CHARLESTON 0450 70 70 110/ 14/ 17 1010.4 6/ 6 3/ 8 $$

USA.gov is the U.S. government's official web portal to all federal, state and local government web resources and services.